Location: Dover
(39.1580°N, 75.5250°W)
Time: 07:47:41
(UTC-04:00)

ISS - All Passes

Search period start: 25 March 2017 00:00
Search period end: 04 April 2017 00:00
Orbit: 399 x 409 km, 51.6° (Epoch: 25 March)

Date Brightness Start Highest point End Pass type
(mag) Time Alt. Az. Time Alt. Az. Time Alt. Az.
25 Mar - 00:41:40 10° NNW 00:42:10 10° N 00:42:41 10° N night (unlit)
25 Mar - 02:18:30 10° N 02:19:51 12° NNE 02:21:13 10° NE night (unlit)
25 Mar - 03:53:55 10° NW 03:57:03 38° NNE 04:00:10 10° ESE night (unlit)
25 Mar - 05:30:46 10° W 05:33:21 21° SW 05:35:57 10° S visible
25 Mar - 20:33:34 10° S 20:36:01 20° SE 20:38:27 10° E visible
25 Mar - 22:09:10 10° WSW 22:12:16 41° NNW 22:15:24 10° NE visible
25 Mar - 23:48:02 10° NW 23:49:27 12° NNW 23:50:51 10° NNE night (unlit)
26 Mar - 01:26:44 10° N 01:27:07 10° N 01:27:30 10° NNE night (unlit)
26 Mar - 03:01:46 10° NNW 03:04:31 24° NNE 03:07:18 10° E night (unlit)
26 Mar - 04:37:57 10° WNW 04:41:06 43° SW 04:44:15 10° SSE night (unlit)
26 Mar - 21:16:35 10° SW 21:19:50 78° NW 21:23:07 10° NE visible
26 Mar - 22:54:40 10° WNW 22:56:45 16° NNW 22:58:50 10° NNE night (unlit)
27 Mar - 02:09:40 10° NNW 02:11:55 17° NNE 02:14:10 10° ENE night (unlit)
27 Mar - 03:45:27 10° NW 03:48:46 89° SW 03:52:04 10° SE night (unlit)
27 Mar - 20:24:19 10° SW 20:27:28 50° SE 20:30:39 10° ENE visible
27 Mar - 22:01:30 10° W 22:04:06 22° NNW 22:06:45 10° NNE visible
28 Mar - 01:17:37 10° NNW 01:19:13 13° NNE 01:20:49 10° NE night (unlit)
28 Mar - 02:53:07 10° NW 02:56:20 47° NE 02:59:31 10° ESE night (unlit)
28 Mar - 04:30:17 10° W 04:32:32 17° SW 04:34:47 10° S night (unlit)
28 Mar - 19:32:29 10° S 19:35:11 24° SE 19:37:54 10° ENE daylight
28 Mar - 21:08:32 10° W 21:11:32 34° NNW 21:14:34 10° NE visible
28 Mar - 22:47:39 10° NNW 22:48:47 11° NNW 22:49:55 10° N visible
29 Mar - 00:25:42 10° N 00:26:28 11° N 00:27:13 10° NNE night (unlit)
29 Mar - 02:00:53 10° NNW 02:03:48 28° NNE 02:06:41 10° E night (unlit)
29 Mar - 03:37:16 10° WNW 03:40:17 33° SW 03:43:17 10° SSE night (unlit)
29 Mar - 18:41:29 10° SSE 18:42:57 13° SE 18:44:26 10° ESE daylight
29 Mar - 20:15:49 10° WSW 20:19:02 62° NW 20:22:16 10° NE visible
29 Mar - 21:54:10 10° NW 21:56:02 14° NNW 21:57:54 10° NNE visible
30 Mar - 01:08:45 10° NNW 01:11:11 19° NNE 01:13:36 10° ENE night (unlit)
30 Mar - 02:44:39 10° NW 02:47:56 70° SW 02:51:12 10° SE night (unlit)
30 Mar - 19:23:23 10° SW 19:26:36 65° SE 19:29:50 10° ENE daylight
30 Mar - 21:00:53 10° WNW 21:03:20 19° NNW 21:05:48 10° NNE visible
31 Mar - 00:16:39 10° NNW 00:18:28 14° NNE 00:20:17 10° NE night (unlit)
31 Mar - 01:52:14 10° NW 01:55:30 58° NE 01:58:44 10° ESE night (unlit)
31 Mar - 03:29:51 10° W 03:31:36 14° SW 03:33:21 10° SSW night (unlit)
31 Mar - 18:31:20 10° SSW 18:34:15 31° SE 18:37:10 10° ENE daylight
31 Mar - 20:07:48 10° W 20:10:42 29° NNW 20:13:36 10° NNE visible
31 Mar - 21:47:12 10° NNW 21:48:00 11° N 21:48:49 10° N visible
31 Mar - 23:24:38 10° N 23:25:42 11° NNE 23:26:44 10° NNE night (unlit)
01 Apr - 00:59:56 10° NW 01:02:57 32° NNE 01:05:57 10° E night (unlit)
01 Apr - 02:36:31 10° WNW 02:39:20 27° SW 02:42:10 10° SSE night (unlit)
01 Apr - 17:39:55 10° S 17:41:57 16° SE 17:44:00 10° E daylight
01 Apr - 19:14:58 10° WSW 19:18:07 49° NW 19:21:19 10° NE daylight
01 Apr - 20:53:35 10° NW 20:55:13 13° NNW 20:56:50 10° NNE visible
02 Apr - 00:07:43 10° NNW 00:10:18 21° NNE 00:12:54 10° ENE night (unlit)
02 Apr - 01:43:45 10° WNW 01:46:59 55° SW 01:50:11 10° SE night (unlit)
02 Apr - 18:22:24 10° SW 18:25:38 83° SE 18:28:53 10° NE daylight
02 Apr - 20:00:11 10° WNW 20:02:27 17° NNW 20:04:43 10° NNE visible
02 Apr - 23:15:34 10° NNW 23:17:35 15° NNE 23:19:36 10° ENE visible
03 Apr - 00:51:15 10° NW 00:54:31 73° NE 00:57:48 10° ESE night (unlit)
03 Apr - 02:29:39 10° WSW 02:30:33 11° SW 02:31:26 10° SW night (unlit)
03 Apr - 17:30:10 10° SSW 17:33:13 39° SE 17:36:16 10° ENE daylight
03 Apr - 19:06:59 10° W 19:09:45 25° NNW 19:12:31 10° NNE daylight
03 Apr - 20:46:46 10° NNW 20:47:07 10° N 20:47:28 10° N visible
03 Apr - 22:23:29 10° N 22:24:47 12° NNE 22:26:06 10° NE visible
